Location: *
(37.4917°N, 71.5558°E)
Time: 08:40:11
(UTC+00:00)

Terra - Pass Details

Date: 09 April 2020
Orbit: 701 x 703 km, 98.2° (Epoch: 03 June)

Event Time Altitude Azimuth Distance (km) Brightness Sun altitude
Exits shadow 17:11:42 20° 355° (N) 1,627 4.1 -36.2°
Drops below altitude 10° 17:13:06 10° 352° (N) 2,177 4.9 -36.4°
Sets 17:15:23 0° 350° (N) 3,100 5.9 -36.6°
